COSMOS 249 DEB *, 6176

Orbit data source: Space-Track

COSMOS 249 DEB *, 6176 is space debris in LEO originally from a launch on Sun, 20 Oct 1968 UTC launched from the Tyuratam Missile And Space Complex (TTMTR). Debris objects in space refer to the collection of defunct objects orbiting the Earth. Examples of debris include non-operational satellites, rocket bodies, and fragments generated from explosions, collisions, or faulty payload assembly.

Loading next visibility...
Identifier
6176, 1968-091CG
Orbit
LEO
Country
Flag of CISCIS
Related business
Manufacturer
Unknown
Mission
Spacecraft
Bus & Motor
Unknown
Mass
Unknown
Launch date (UTC)
1968-10-20 (57 years ago)
Launch vehicle
Unknown
Launch site
Tyuratam Missile And Space Complex (TTMTR)
Object type
Payload
Rocket body
Debris
Shape & HBR
Unknown shape, 0.1 m
Radar Cross Section
Small (<0.1 m²)

Expand to show TLE details & history
Last TLE update: 8 hours ago

TLE from 8 hours ago
0 COSMOS 249 DEB *
1  6176U 68091CG  26035.70535129  .00000194  00000-0  46188-3 0  9996
2  6176  65.7256 162.0264 0457942  96.4832 268.8531 13.08383277141851
Epoch: 2026-02-04T16:55Z
TLE epoch observation values (Epoch: 2026-02-04T16:55:42.351Z)
Latitude
0.00003°
Longitude
133.23185°
Altitude
1,254.219 km
Speed
7.218 km/s
True Right ascension
10h 48m 06s
True Declination
0° 00' 00"
Sunlit
Object was in full shadow at epoch
Visualization orbit readout
Latitude
Unknown
Longitude
Unknown
Altitude
Unknown
Speed
Unknown
Apparent Right ascension
Unknown
Apparent Declination
Unknown
Sunlit
N/A
Visualization observer readout
Local Sidereal Time
02:51:43
Azimuth
Unknown
Elevation
Unknown
Doppler factor
Unknown
Orbital elements
Apogee altitude
1,576.31 km
Perigee altitude
879.676 km
Semi-major axis
7,606.13 km
Eccentricity
0.04579
Inclination
65.7256°
RAAN
162.0264°
Arg. of periapsis
96.4832°
True anomaly
263.61981°
Mean anomaly
268.8531°
Eccentric anomaly
266.23495°
Mean motion
3.27188 °/min
Orbital period
110.03 mins
BSTAR
0.00046188
Loading maneuver chart data...
Computing Atmospheric mass density...

Documentation

Showing up to 5 results
|